Skip Page Navigation
NASA JPL Caltech
NASA Logo - Jet Propulsion Laboratory + View the NASA Portal
+ Center for Near-Earth Object Studies
JPL Home Earth Solar System Stars & Galaxies Technology
JPL Solar System Dynamics
BODIES ORBITS EPHEMERIDES TOOLS PHYSICAL DATA DISCOVERY FAQ SITE MAP
IMPORTANT: The SSD Announcement email list is now available. Major changes are coming in the near future, including possible hostname and/or URL changes. To be notified of such changes, subscribe to this email list.

Please visit this page for more details.


JPL Small-Body Database Browser
Search: [ help ]  
85907 (1999 CV83)
Classification: Main-belt Asteroid          SPK-ID: 2085907
Ephemeris | Orbit Diagram | Orbital Elements | Mission Design | Physical Parameters | Discovery Circumstances | Close-Approach Data ]

[ show orbit diagram ]
Orbital Elements at Epoch 2458600.5 (2019-Apr-27.0) TDB
Reference: JPL 25 (heliocentric ecliptic J2000)
 Element Value Uncertainty (1-sigma)   Units 
e .1475777494462231 3.3446e-08  
a 2.378295963388774 9.6852e-09 au
q 2.027312397594821 7.8637e-08 au
i 3.127931915954465 3.6443e-06 deg
node 69.46553449814839 7.2968e-05 deg
peri 70.83323280250167 7.438e-05 deg
M 173.6715565772815 1.6184e-05 deg
tp 2457954.215900658456
(2017-Jul-19.71590066)
5.8143e-05 TDB
period 1339.668281601565
3.67
8.1833e-06
2.24e-08
d
yr
n .2687232391362004 1.6415e-09 deg/d
Q 2.729279529182726 1.1114e-08 au
  Orbit Determination Parameters
   # obs. used (total)      1108  
   data-arc span      7588 days (20.77 yr)  
   first obs. used      1998-12-16  
   last obs. used      2019-09-25  
   planetary ephem.      DE431  
   SB-pert. ephem.      SB431-N16  
   condition code      0  
   norm. resid. RMS      .54587  
   source      ORB  
   producer      Otto Matic  
   solution date      2019-Nov-07 10:15:47  

Additional Information
 Earth MOID = 1.04345 au 
 Jupiter MOID = 2.29284 au 
 T_jup = 3.523 
[ show covariance matrix ]

Ephemeris | Orbit Diagram | Orbital Elements | Mission Design | Physical Parameters | Discovery Circumstances | Close-Approach Data ]

Physical Parameter Table
Parameter Symbol Value Units Sigma Reference Notes
absolute magnitude H 15.2   n/a MPO432402  
diameter diameter 2.641 km 0.196 urn:nasa:pds:neowise_diameters_albedos::2.0[mainbelt] (http://adsabs.harvard.edu/abs/2011ApJ...741...68M)  
geometric albedo albedo 0.231   0.044 urn:nasa:pds:neowise_diameters_albedos::2.0[mainbelt] (http://adsabs.harvard.edu/abs/2011ApJ...741...68M)  

85907 (1999 CV83)          Discovered 1999-Feb-10 by LINEAR at Socorro
Reference: 20040830/Numbers.arcLast Updated: 2004-09-06

[ show close-approach data ]
Alternate Designations
 1999 CV83 = 2001 SP37 
Ephemeris | Orbit Diagram | Orbital Elements | Mission Design | Physical Parameters | Discovery Circumstances | Close-Approach Data ]
ABOUT SSD CREDITS/AWARDS PRIVACY/COPYRIGHT GLOSSARY LINKS
FirstGov
(server date/time)  
NASA Home Page
Site Manager:   Ryan S. Park
Webmaster  Alan B. Chamberlin